TIANMU-1 04

Last updated on Thu Nov 21 2024 00:02:20 GMT+0000 (Coordinated Universal Time)

1 55974U 23039B 24325.53687050 .00016555 00000+0 60469-3 0 9996 2 55974 97.4752 115.3214 0005413 354.2743 5.8434 15.28172645 92673
UTC large
Height (km)
Speed (km/s)
/
Latitude / Longitude
Inclination (degrees)
Orbital Period (minutes)
Azimuth
Elevation
Range (km)
Doppler Factor

Next 0 passes for location: London (51.5072 / 0.1276)

Sorry there are no passes over London.